#timestamp,LO_Frequency,Hit,StdDev 
1549479615.2,286046996.9,N
1549479635.0,286047001.1,N
1549479635.9,286047001.1,N
1549479655.7,286047002.2,N
1549479675.6,286047002.6,N
1549479695.4,286047002.1,N
1549479715.3,286047000.2,N
1549479735.1,286046999.8,N
1549479755.8,286047000.4,N
1549479775.7,286046999.1,N
1549479795.5,286046999.5,N
1549479815.4,286046996.9,N
1549479835.2,286046998.4,N
1549479855.0,286046998.3,N
1549479855.9,286046998.3,N
1549479875.8,286046999.5,N
1549479895.6,286046996.7,N
1549479915.5,286046997.3,N
1549479935.3,286046996.9,N
1549479955.1,286046996.6,N
1549479975.9,286046998.4,N
1549479995.7,286046998.4,N
1549480015.5,286046998.3,N
1549480035.4,286047001.2,N
1549480055.2,286046999.8,N
1549480075.1,286046999.8,N
1549480076.0,286046999.8,N
1549480095.8,286047000.6,N
1549480115.6,286046999.0,N
1549480135.5,286046998.8,N
1549480155.3,286046997.0,N
1549480175.2,286046999.5,N
1549480195.9,286046996.7,N
1549480215.7,286046997.3,N
1549480235.6,286046997.8,N
1549480255.4,286046999.1,N
1549480275.2,286046999.4,N
1549480295.1,286046997.2,N
1549480296.0,286046997.2,N
1549480315.8,286046996.8,N
1549480335.7,286046996.5,N
1549480355.5,286046998.9,N
1549480375.3,286046998.7,N
1549480395.2,286046996.9,N
1549480415.0,286046999.3,N
1549480415.9,286046999.3,N
1549480435.8,286046999.3,N
1549480455.6,286046999.6,N
1549480475.4,286046995.2,Y
1549480495.3,286046994.9,P
1549480515.1,286046997.8,N
1549480535.8,286046996.8,N
1549480555.7,286046997.3,N
1549480575.5,286046996.7,N
1549480595.4,286046997.1,N
1549480615.2,286046999.4,N
1549480635.0,286046999.6,N
1549480635.9,286046999.6,N
1549480655.8,286046998.5,N
1549480675.6,286046999.2,N
1549480695.5,286046999.1,N
1549480715.3,286046998.4,N
1549480735.1,286046998.7,N
1549480755.9,286046998.4,N
1549480775.7,286046999.5,N
1549480795.5,286046996.5,N
1549480815.4,286046999.3,N
1549480835.2,286046999.2,N
1549480855.1,286046999.3,N
1549480856.0,286046999.3,N
1549480875.8,286047001.2,N
1549480895.6,286047000.8,N
1549480915.5,286047001.0,N
1549480935.3,286047000.9,N
1549480955.1,286046999.8,N
1549480975.9,286047002.6,N
1549480995.7,286047001.8,N
1549481015.6,286047003.2,N
1549481035.4,286047003.5,N
1549481055.2,286047003.7,N
1549481075.1,286047001.9,N
1549481076.0,286047001.9,N
1549481095.8,286047004.0,N
1549481115.6,286047001.7,N
1549481135.5,286047003.5,N
1549481155.3,286047003.2,N
1549481175.2,286047003.7,N
1549481195.9,286047003.7,N
1549481215.7,286047006.0,N
1549481235.6,286047007.4,Y
1549481255.4,286047004.9,P
1549481275.2,286047004.8,N
1549481295.1,286047004.8,N
1549481296.0,286047004.8,Y
1549481315.8,286047000.9,P
1549481335.7,286047000.4,N
1549481355.5,286047002.8,N
1549481375.3,286046999.8,N
1549481395.2,286047002.7,N
1549481415.0,286047002.4,N
1549481415.9,286047002.4,N
1549481435.8,286047001.8,N
1549481455.6,286047002.3,N
1549481475.4,286047002.7,N
1549481495.3,286046999.9,N
1549481515.1,286047001.1,N
1549481535.9,286047000.8,N
1549481555.7,286046999.9,N
1549481575.5,286046999.3,N
1549481595.4,286046999.9,N
1549481615.2,286047000.9,N
1549481635.0,286047000.3,N
1549481635.9,286047000.3,N
1549481655.8,286046998.2,N
1549481675.6,286047001.0,N
1549481695.5,286047000.3,N
1549481715.3,286047001.5,N
1549481735.1,286047002.6,N
1549481755.9,286047002.0,N
1549481775.7,286047002.2,N
1549481795.5,286047001.9,N
1549481815.4,286047001.9,N
1549481835.2,286047001.9,N
1549481855.1,286047000.1,N
1549481856.0,286047000.1,N
1549481875.8,286047002.6,N
1549481895.6,286047002.4,N
1549481915.5,286047000.2,N
1549481935.3,286047002.1,N
1549481955.2,286047004.0,Y
1549481975.9,286047002.8,P
1549481995.7,286046999.7,N
1549482015.6,286047002.8,N
1549482035.4,286047001.5,N
1549482055.2,286047001.8,N
1549482075.1,286047003.9,Y
1549482076.0,286047003.9,P
1549482095.8,286046999.7,N
1549482115.7,286047000.2,N
1549482135.5,286047000.2,N
1549482155.3,286046999.7,N
1549482175.2,286047002.0,N
1549482195.0,286047001.9,N
1549482195.9,286047001.9,N
1549482215.7,286047002.6,N
1549482235.6,286047000.5,N
1549482255.4,286046998.5,N
1549482275.3,286046998.3,N
1549482295.1,286047001.2,N
1549482315.8,286047000.5,N
1549482335.7,286047000.5,N
1549482355.5,286047000.0,N
1549482375.4,286046998.1,N
1549482395.2,286047000.5,N
1549482415.0,286047000.9,N
1549482415.9,286047000.9,N
1549482435.8,286047002.4,N
1549482455.6,286047002.4,N
1549482475.4,286047002.1,N
1549482495.3,286047001.5,N
1549482515.1,286047002.5,N
1549482535.9,286047004.2,Y
1549482555.7,286047002.8,P
1549482575.5,286047002.2,N
1549482595.4,286047002.3,N
1549482615.2,286047002.3,Y
1549482635.1,286047000.6,P
1549482636.0,286047000.6,N
1549482655.8,286047000.3,N
1549482675.6,286047001.1,N
1549482695.5,286047000.8,N
1549482715.3,286046998.3,Y
1549482735.2,286046997.0,P
1549482755.9,286046998.3,N
1549482775.7,286046999.5,N
1549482795.6,286046999.3,N
1549482815.4,286046998.1,N
1549482835.2,286046999.0,N
1549482855.1,286046997.7,N
1549482856.0,286046997.7,N
1549482875.8,286046999.2,N
1549482895.7,286046998.6,N
1549482915.5,286046998.1,N
1549482935.3,286046998.5,N
1549482955.2,286046997.0,Y
1549482975.0,286046998.4,P
1549482975.9,286046998.4,P
1549482995.8,286047001.0,P
1549483015.6,286046998.3,N
1549483035.4,286047001.0,N
1549483055.3,286046999.4,N
1549483075.1,286046999.2,N
1549483095.8,286047000.8,N
1549483115.7,286047000.8,N
1549483135.5,286047000.3,N
1549483155.4,286046999.3,N
1549483175.2,286047000.7,N
1549483195.0,286047000.0,N
1549483195.9,286047000.0,N
